Other Public Products
Issued by NWS Grand Forks, ND

Home | Current Version | Previous Version | Graphics & Text | Print | Product List | Glossary On
Versions: 1 2 3 4 5 6 7 8 9 10 11 12 13 14 15 16 17 18 19 20 21 22 23 24 25 26 27 28 29 30 31 32 33 34 35 36 37 38 39 40 41 42 43 44 45 46 47 48 49 50
000
FPUS83 KFGF 240631
OPUFGF
PRAIRIE TO PINES WEATHER ROUNDUP
NATIONAL WEATHER SERVICE EASTERN NORTH DAKOTA/GRAND FORKS ND
100 AM CDT THU AUG 24 2017

 **SATELLITE DATA USED TO AUGMENT SKY COVER AT AUTOMATED STATIONS**
 *****  WEATHER ACROSS EASTERN NORTH DAKOTA  *****

CITY           SKY/WX    TMP DP  RH WIND       PRES   REMARKS
GRAND FORKS    FAIR      56  55  97 NE8       30.09R
6HR MIN TEMP:  56; 6HR MAX TEMP:  66; 6HR PCP:  0.18;

GRAND FORKS AF FAIR      50  49  98 NE6       30.09R
GRAND CITY NWS NOT AVBL
BUXTON           N/A     55  55  98 NE3         N/A
DEVILS LAKE    MOCLDY    55  52  89 E12       30.07S
6HR MIN TEMP:  55; 6HR MAX TEMP:  69;

FARGO          FAIR      57  56  96 E7        30.05R
6HR MIN TEMP:  57; 6HR MAX TEMP:  74; 6HR PCP:  0.01;

WAHPETON ARPT  FAIR      59  46  63 E12G18    30.06F
$$

 *****  WEATHER ACROSS CENTRAL AND WESTERN NORTH DAKOTA  *****

CITY           SKY/WX    TMP DP  RH WIND       PRES   REMARKS
JAMESTOWN      FAIR      56  50  80 E14       30.02R
6HR MIN TEMP:  56; 6HR MAX TEMP:  76;

BISMARCK       FAIR      60  56  86 E6        29.97R
6HR MIN TEMP:  60; 6HR MAX TEMP:  81;

MINOT          FAIR      57  52  83 NE9       30.01R
6HR MIN TEMP:  57; 6HR MAX TEMP:  82;

MINOT AFB      FAIR      57  50  79 E13       30.00R
6HR MIN TEMP:  57; 6HR MAX TEMP:  80;

GARRISON         N/A     60  56  86 E9        29.96R
6HR MIN TEMP:  60; 6HR MAX TEMP:  80;

WILLISTON      FAIR      66  53  63 E13       29.95S
6HR MIN TEMP:  66; 6HR MAX TEMP:  90;

DICKINSON      FAIR      62  56  80 S9        29.95S
6HR MIN TEMP:  60; 6HR MAX TEMP:  85;

HETTINGER      FAIR      65  57  75 SE10      29.99S
6HR MIN TEMP:  64; 6HR MAX TEMP:  83;

$$

 *****  OTHER OBSERVATIONS NORTHEAST NORTH DAKOTA  *****

CITY           SKY/WX    TMP DP  RH WIND       PRES   REMARKS
WALHALLA       FOG       45  45 100 CALM      30.13R VSB 1
LANGDON        FAIR      50  50 100 E10       30.11S
CAVALIER       FAIR      48  48 100 CALM      30.12R
GRAFTON        FAIR      50  50 100 NE6       30.13S
CANDO          FAIR      50  50 100 E7        30.10R
FORT TOTTEN      N/A     57  53  85 E7        29.95S
ROLLA          CLOUDY    48  50 100 E10       30.11R
RUGBY          MOCLDY    55  54  94 E16       30.04R
 ***** THE ABOVE OBSERVATIONS ARE NON NWS ARE NOT QUALITY
        CONTROLLED AND MAY MIS-REPORT RAIN FOR SNOW...
$$

 *****  OTHER OBSERVATIONS SOUTHEAST NORTH DAKOTA *****

CITY           SKY/WX    TMP DP  RH WIND       PRES   REMARKS
COOPERSTOWN    MOCLDY    54  54 100 E12       30.07S
VALLEY CITY      N/A     59  52  77 SE13G21   30.06S
OAKES          NOT AVBL
GWINNER        MOCLDY    59  55  88 E13       30.04R
SHEYENNE NWR     N/A     59  53  81 E14       29.95S
BUFFALO          N/A     55  50  84 SW6         N/A
WYNDMERE       NOT AVBL
 ***** THE ABOVE OBSERVATIONS ARE NON NWS ARE NOT QUALITY
       CONTROLLED AND MAY MIS-REPORT RAIN FOR SNOW...
$$

  *****  WEATHER ACROSS NORTHERN MINNESOTA  *****

CITY           SKY/WX    TMP DP  RH WIND       PRES   REMARKS
FLAG ISLAND    FAIR      55  46  71 CALM      30.12S
WARROAD        FAIR      45  41  87 CALM      30.14R
ROSEAU         HAZE      41  36  81 CALM      30.13S VSB 1/2
HALLOCK        FAIR      46  45  93 E6        30.12S
THF RVR FALLS  CLOUDY    52  49  89 E7        30.12R
6HR MIN TEMP:  51; 6HR MAX TEMP:  55; 6HR PCP: TRACE;

HALSTAD          N/A     55  52  90 E8          N/A
FOSSTON          N/A     52  48  87 CALM      30.12R
BAUDETTE       FAIR      44  44 100 E3        30.13R
6HR MIN TEMP:  43; 6HR MAX TEMP:  55; 6HR PCP: TRACE;

WASKISH        FOG       43  43 100 CALM      30.13R VSB 1/2
CROOKSTON      FAIR      55  54  94 E7        30.10S
$$
  *****  WEATHER ACROSS CENTRAL AND WEST MINNESOTA  *****

CITY           SKY/WX    TMP DP  RH WIND       PRES   REMARKS
BEMIDJI        FOG       52  52 100 NE6       30.12S VSB 1/2
PARK RAPIDS    CLOUDY    56  54  93 CALM      30.11R
6HR MIN TEMP:  56; 6HR MAX TEMP:  69; 6HR PCP:  0.19;

WADENA         FAIR      52  52 100 E5        30.10S
DETROIT LAKES  FAIR      54  52  94 SE8       30.10F
MOORHEAD       FAIR      57  54  88 E8        30.06S
FERGUS FALLS   RAIN      59  54  82 SE9       30.07F
ELBOW LAKE     CLOUDY    60  52  75 SE16G23   30.07S
MORRIS MN      MOCLDY    63  54  72 E14G24    30.06R
STAPLES        FAIR      54  52  94 CALM      30.11S
WHEATON        FAIR      61  54  77 E9G17     30.07R
$$
  *****  WEATHER ELSEWHERE ACROSS MINNESOTA  *****

CITY           SKY/WX    TMP DP  RH WIND       PRES   REMARKS
DULUTH         CLOUDY    52  52 100 NW5       30.10R
6HR MIN TEMP:  52; 6HR MAX TEMP:  62; 6HR PCP:  0.05;

INTRNTL FALLS  FAIR      39  37  92 CALM      30.13R FOG
6HR MIN TEMP:  39; 6HR MAX TEMP:  57;

ELY            FAIR      43  43 100 CALM      30.13R
CLOQUET        MOCLDY    50  46  87 CALM      30.11S
BRAINERD       CLOUDY    54  53  97 CALM      30.11S
6HR MIN TEMP:  53; 6HR MAX TEMP:  66; 6HR PCP:  0.27;

HIBBING        FAIR      47  47 100 N3        30.11R
6HR MIN TEMP:  47; 6HR MAX TEMP:  59; 6HR PCP:  0.03;

ALEXANDRIA     FAIR      59  51  75 E10       30.10S
6HR MIN TEMP:  59; 6HR MAX TEMP:  72;

SAINT CLOUD    MOCLDY    58  51  78 E5        30.11S
6HR MIN TEMP:  58; 6HR MAX TEMP:  71; 6HR PCP: TRACE;

MINNEAPOLIS    CLOUDY    65  51  60 NE7       30.10R
6HR MIN TEMP:  65; 6HR MAX TEMP:  74;

$$

  *****  WEATHER ACROSS SOUTH DAKOTA  *****

CITY           SKY/WX    TMP DP  RH WIND       PRES   REMARKS
SIOUX FALLS    CLOUDY    69  60  73 SE10      30.00R
6HR MIN TEMP:  69; 6HR MAX TEMP:  73; 6HR PCP: TRACE;

BROOKINGS      MOCLDY    64  60  87 SE12      30.00S
WATERTOWN      FAIR      63  59  87 E7        30.00S
6HR MIN TEMP:  63; 6HR MAX TEMP:  73;

HURON          MOCLDY    68  61  78 SE13      29.93S
6HR MIN TEMP:  68; 6HR MAX TEMP:  78;

SISSETON         N/A     57  55  93 CALM      30.03R
ABERDEEN       FAIR      60  58  92 NE7       29.98R
6HR MIN TEMP:  58; 6HR MAX TEMP:  78;

MITCHELL       FAIR      67  61  81 SE12      29.93F
PIERRE         FAIR      65  60  84 NE12      29.91R
6HR MIN TEMP:  65; 6HR MAX TEMP:  85;

MOBRIDGE       FAIR      64  59  83 E7        29.94R
RAPID CITY     FAIR      64  54  69 CALM      30.00R
6HR MIN TEMP:  62; 6HR MAX TEMP:  87;

$$

  *****  SOME WEATHER IN NEARBY STATES *****

CITY           SKY/WX    TMP DP  RH WIND       PRES   REMARKS
GLASGOW MT     FAIR      74  41  30 E17       29.88S
6HR MIN TEMP:  74; 6HR MAX TEMP:  91;

GREAT FALLS MT FAIR      68  37  32 E3        29.92F
6HR MIN TEMP:  67; 6HR MAX TEMP:  92;

CHEYENNE WY    MOCLDY    63  44  50 W8        30.16S
6HR MIN TEMP:  63; 6HR MAX TEMP:  76;

SCOTTSBLUFF NE FAIR      68  51  54 SE13      30.04R
6HR MIN TEMP:  68; 6HR MAX TEMP:  84;

OMAHA NE       FAIR      66  58  75 SE7       30.05R
6HR MIN TEMP:  66; 6HR MAX TEMP:  78;

DES MOINES IA  CLOUDY    69  55  60 CALM      30.07F
6HR MIN TEMP:  67; 6HR MAX TEMP:  78; 6HR PCP: TRACE;

DAVENPORT IA   FAIR      56  53  90 W5        30.09R
6HR MIN TEMP:  54; 6HR MAX TEMP:  71;

CHICAGO IL     FAIR      64  55  72 CALM      30.03S
6HR MIN TEMP:  63; 6HR MAX TEMP:  72;

EAU CLAIRE WI  CLOUDY    58  52  80 NE8       30.11R
6HR MIN TEMP:  52; 6HR MAX TEMP:  68;

LA CROSSE WI   FAIR      57  54  89 CALM      30.09R
6HR MIN TEMP:  57; 6HR MAX TEMP:  74;

$$

  *****  SOME NATIONAL WEATHER *****

CITY           SKY/WX    TMP DP  RH WIND       PRES   REMARKS
LA GUARDIA NY  FAIR      74  55  51 NW5       29.87S
6HR MIN TEMP:  74; 6HR MAX TEMP:  79;


USA.gov is the U.S. government's official web portal to all federal, state and local government web resources and services.